TimeMDT,TemperatureF,Dew PointF,Humidity,Sea Level PressureIn,VisibilityMPH,Wind Direction,Wind SpeedMPH,Gust SpeedMPH,PrecipitationIn,Events,Conditions,WindDirDegrees,DateUTC
12:53 AM,36.0,34.0,93,30.21,5.0,WSW,9.2,-,0.00,,Overcast,240,2012-10-10 06:53:00
1:28 AM,35.6,33.8,93,30.18,2.5,SW,8.1,-,N/A,,Overcast,230,2012-10-10 07:28:00
1:53 AM,35.1,33.1,92,30.21,3.0,WSW,8.1,-,N/A,,Overcast,240,2012-10-10 07:53:00
2:04 AM,35.6,33.8,93,30.18,2.5,WSW,8.1,-,N/A,,Overcast,240,2012-10-10 08:04:00
2:19 AM,33.8,32.0,93,30.18,3.0,WSW,8.1,-,N/A,,Overcast,240,2012-10-10 08:19:00
2:38 AM,32.0,30.2,93,30.18,3.0,West,6.9,-,N/A,,Scattered Clouds,260,2012-10-10 08:38:00
2:53 AM,30.9,30.0,96,30.21,4.0,West,8.1,-,N/A,,Clear,270,2012-10-10 08:53:00
3:53 AM,28.9,26.1,89,30.20,8.0,West,5.8,-,N/A,,Clear,280,2012-10-10 09:53:00
4:53 AM,28.9,25.0,85,30.18,10.0,West,5.8,-,N/A,,Clear,260,2012-10-10 10:53:00
5:53 AM,28.0,24.1,85,30.19,10.0,West,5.8,-,N/A,,Clear,280,2012-10-10 11:53:00
6:53 AM,28.4,23.0,80,30.14,10.0,West,5.8,-,N/A,,Clear,270,2012-10-10 12:53:00
7:53 AM,28.9,25.0,85,30.18,10.0,West,3.5,-,N/A,,Clear,280,2012-10-10 13:53:00
8:53 AM,37.9,33.1,83,30.15,5.0,SSW,4.6,-,N/A,,Haze,210,2012-10-10 14:53:00
9:53 AM,46.0,35.1,66,30.09,8.0,SSW,9.2,-,N/A,,Clear,200,2012-10-10 15:53:00
10:53 AM,53.1,32.0,45,30.03,10.0,South,8.1,-,N/A,,Clear,190,2012-10-10 16:53:00
11:53 AM,55.9,30.0,37,29.99,10.0,South,9.2,-,N/A,,Clear,170,2012-10-10 17:53:00
12:53 PM,59.0,30.9,35,29.96,10.0,South,9.2,-,N/A,,Clear,170,2012-10-10 18:53:00
1:53 PM,60.1,30.9,33,29.93,10.0,South,11.5,-,N/A,,Clear,190,2012-10-10 19:53:00
2:53 PM,64.0,30.9,29,29.91,10.0,South,8.1,-,N/A,,Clear,180,2012-10-10 20:53:00
3:53 PM,63.0,30.9,30,29.91,10.0,South,13.8,-,N/A,,Clear,190,2012-10-10 21:53:00
4:53 PM,60.1,30.9,33,29.93,10.0,SSW,10.4,-,N/A,,Clear,200,2012-10-10 22:53:00
5:53 PM,55.9,30.0,37,29.97,10.0,South,8.1,-,N/A,,Clear,190,2012-10-10 23:53:00
6:53 PM,50.0,32.0,50,30.00,10.0,South,5.8,-,N/A,,Clear,190,2012-10-11 00:53:00
7:53 PM,46.0,30.9,56,30.01,9.0,SW,5.8,-,N/A,,Clear,230,2012-10-11 01:53:00
8:53 PM,46.9,28.9,50,29.96,10.0,West,4.6,-,N/A,,Clear,280,2012-10-11 02:53:00
9:53 PM,48.9,24.1,38,29.92,10.0,West,13.8,-,N/A,,Clear,270,2012-10-11 03:53:00
10:53 PM,48.9,26.1,41,29.89,10.0,West,11.5,-,N/A,,Clear,280,2012-10-11 04:53:00
11:53 PM,51.1,26.1,38,29.87,10.0,West,10.4,-,0.00,,Clear,260,2012-10-11 05:53:00